Location: El Manguito
(10.2358°N, 67.3634°W)
Time: 22:34:30
(UTC+00:00)

Aurora 2 Rocket - Pass Details

Date: 14 December 2025
Orbit: 385 x 1539 km, 25.0° (Epoch: 22 January)

Event Time Altitude Azimuth Distance (km) Brightness Sun altitude
Exits shadow 09:14:13 33° 295° (WNW) 1,695 4.2 -20.0°
Maximum altitude 09:16:34 43° 337° (NNW) 1,343 3.9 -19.5°
Drops below altitude 10° 09:21:59 10° 48° (NE) 2,345 5.9 -18.2°
Sets 09:24:14 0° 56° (NE) 3,106 6.7 -17.7°
